Flag for Russia Weather past 2 weeks in Murmansk, Russia

Now
48 °F

Partly sunny.


Feels Like: 47 °F
Forecast: 47 / 55 °F
Wind: 3 mph from Northeast

Location: Murmansk Airport

Current Time: Aug 1, 2015 at 4:41:41 AM

Latest Report: Aug 1, 2015 at 4:00 AM


Visibility: 6 mi

Pressure: 29.65 "Hg

Humidity: 87%

Dew point: 45 °F

Location of MurmanskLocation

Historic Weather in Murmansk — Graph

°F

Murmansk temperature yesterday

Maximum temperature yesterday: 54 °F (at 5:00 PM)
Minimum temperature yesterday: 43 °F (at 2:30 AM)
Average temperature yesterday: 50 °F

Past Weeks' High & Low Weather Summary

 TemperatureHumidityPressure
High70 °F (Jul 29, 1:30 PM)94% (Jul 20, 5:00 AM)30.07 "Hg (Jul 20, 5:00 AM)
Low39 °F (Jul 18, 3:30 AM)32% (Jul 18, 6:00 PM)29.53 "Hg (Jul 19, 1:00 PM)
Average54 °F72%29.74 "Hg
* Reported Jul 17 3:00 AM — Aug 1 3:00 AM, Murmansk, Weather by CustomWeather, © 2015

Note: Actual official high and low records may vary slightly from our data, if they occured in-between our weather recording intervals... More about our weather records

Advertising

Murmansk weather history for previous 24 hours

 ConditionsComfort  
Time TempWeatherWind HumidityBarometerVisibility
3:00 AM
Sat, Aug 1
48 °FPartly sunny.3 mph87%29.65 "HgN/A
2:30 AM48 °FPassing clouds.3 mph94%29.65 "HgN/A
2:00 AM48 °FLow clouds.6 mph94%29.65 "Hg5 mi
1:30 AM48 °FLow clouds.3 mph87%29.62 "Hg4 mi
1:00 AM48 °FLow clouds.3 mph87%29.65 "HgN/A
12:30 AM46 °FLow clouds.3 mph93%29.65 "HgN/A
12:00 AM46 °FDrizzle. Low clouds.3 mph93%29.65 "Hg4 mi
11:30 PM
Fri, Jul 31
48 °FDrizzle. Low clouds.6 mph87%29.65 "Hg5 mi
11:00 PM48 °FPartly sunny.6 mph82%29.62 "HgN/A
10:30 PM48 °FPartly sunny.6 mph82%29.65 "HgN/A
10:00 PM48 °FPartly sunny.6 mph82%29.65 "HgN/A
9:30 PM48 °FPartly sunny.3 mph82%29.65 "HgN/A
9:00 PM50 °FPartly sunny.6 mph76%29.65 "HgN/A
8:30 PM50 °FPartly sunny.6 mph82%29.65 "HgN/A
8:00 PM50 °FPartly sunny.6 mph82%29.65 "HgN/A
7:30 PM50 °FPartly sunny.3 mph82%29.65 "HgN/A
7:00 PM50 °FPartly sunny.3 mph82%29.65 "HgN/A
6:30 PM52 °FPartly sunny.6 mph77%29.65 "HgN/A
6:00 PM52 °FPartly sunny.3 mph82%29.65 "HgN/A
5:30 PM52 °FBroken clouds.6 mph82%29.65 "HgN/A
5:00 PM54 °FBroken clouds.6 mph77%29.65 "HgN/A
4:00 PM52 °FPartly sunny.6 mph82%29.62 "HgN/A
3:30 PM52 °FPartly sunny.6 mph82%29.65 "HgN/A
3:00 PM52 °FPartly sunny.6 mph82%29.65 "HgN/A
2:30 PM52 °FPartly sunny.8 mph82%29.65 "HgN/A
2:00 PM52 °FPartly sunny.8 mph82%29.65 "HgN/A
1:30 PM52 °FPartly sunny.8 mph82%29.65 "HgN/A
1:00 PM52 °FPartly sunny.6 mph82%29.65 "HgN/A
12:30 PM52 °FPartly sunny.8 mph82%29.65 "HgN/A
12:00 PM52 °FPartly sunny.8 mph82%29.65 "HgN/A
11:30 AM52 °FPartly sunny.8 mph82%29.62 "HgN/A
11:00 AM52 °FPartly sunny.8 mph82%29.62 "HgN/A
10:30 AM52 °FPartly sunny.8 mph82%29.62 "HgN/A
10:00 AM52 °FPartly sunny.10 mph82%29.62 "HgN/A
9:30 AM52 °FPartly sunny.10 mph82%29.62 "HgN/A
9:00 AM52 °FPartly sunny.8 mph77%29.62 "HgN/A
8:30 AM52 °FPartly sunny.10 mph77%29.62 "HgN/A
8:00 AM52 °FPartly sunny.8 mph77%29.62 "HgN/A
7:30 AM52 °FPartly sunny.6 mph77%29.62 "HgN/A
7:00 AM50 °FPassing clouds.8 mph82%29.62 "HgN/A
6:30 AM50 °FPassing clouds.6 mph82%29.62 "HgN/A
6:00 AM50 °FPassing clouds.6 mph82%29.62 "HgN/A
5:30 AM48 °FPassing clouds.8 mph87%29.62 "HgN/A
5:00 AM48 °FSunny.6 mph87%29.62 "Hg10 mi
4:30 AM48 °FPassing clouds.3 mph87%29.62 "HgN/A
4:00 AM46 °FSunny.1 mph87%29.62 "Hg10 mi
Weather by CustomWeather, © 2015

See weather overviewHow to use our weather pages